Temperature
7 7 7 6 6 5 5 4 3 2 2 3 3 2 1 1 0 0 -0 -1 -1 -1 -1 -2 -2 -2 -3 -3 -3 -3 -3 -3 -3 -3 -3 -2 -2 -2
7 7 6 6 5 5 4 4 3 2 1 2 2 1 1 0 -0 -1 -1 -1 -1 -2 -2 -2 -3 -3 -3 -3 -3 -4 -3 -3 -3 -3 -3 -3 -3 -3
7 6 6 5 5 4 4 3 3 2 1 1 1 1 0 -0 -1 -1 -1 -2 -2 -2 -3 -3 -3 -3 -4 -4 -4 -4 -4 -4 -4 -4 -4 -4 -3 -3
6 6 5 5 4 4 3 3 2 1 1 0 0 0 -0 -1 -1 -2 -2 -2 -3 -3 -3 -4 -4 -4 -4 -4 -4 -4 -4 -4 -4 -4 -4 -4 -4 -4
6 5 5 4 4 3 3 2 1 1 0 -0 -0 -1 -1 -2 -2 -2 -3 -3 -3 -4 -4 -4 -4 -4 -5 -5 -5 -5 -5 -5 -5 -5 -5 -5 -5 -4
5 5 4 4 3 3 2 1 1 0 -0 -1 -1 -2 -2 -2 -3 -4 -4 -4 -4 -4 -4 -5 -5 -5 -5 -5 -5 -5 -5 -5 -5 -5 -5 -5 -5 -5
4 4 4 3 2 2 1 1 0 -1 -1 -2 -2 -2 -3 -3 -4 -4 -5 -5 -5 -5 -5 -5 -5 -5 -5 -5 -5 -5 -5 -6 -6 -6 -6 -6 -5 -5
4 4 3 2 2 1 1 0 -1 -1 -2 -2 -3 -3 -4 -4 -5 -5 -5 -6 -6 -6 -6 -6 -6 -6 -6 -6 -6 -6 -6 -6 -6 -6 -6 -6 -6 -6
3 3 2 2 1 1 0 -0 -1 -2 -2 -3 -4 -4 -4 -5 -5 -6 -6 -6 -6 -6 -7 -6 -6 -6 -6 -6 -6 -6 -7 -7 -7 -7 -7 -6 -6 -6
3 2 2 1 1 -0 -1 -1 -2 -2 -3 -3 -4 -4 -5 -5 -6 -6 -6 -7 -7 -7 -7 -7 -7 -7 -7 -6 -7 -7 -7 -7 -7 -7 -7 -7 -7 -6
2 1 1 0 -0 -1 -1 -2 -3 -3 -4 -4 -5 -5 -6 -6 -6 -7 -7 -7 -7 -7 -7 -8 -8 -8 -7 -7 -7 -7 -8 -8 -7 -7 -7 -7 -7 -7
1 1 -0 -1 -1 -2 -3 -3 -4 -4 -5 -5 -6 -6 -6 -7 -7 -7 -8 -8 -8 -8 -8 -9 -9 -9 -9 -8 -7 -8 -8 -8 -8 -7 -7 -7 -7 -7
0 -0 -1 -2 -2 -3 -4 -4 -5 -5 -6 -6 -6 -7 -7 -7 -8 -8 -8 -9 -9 -9 -9 -9 -9 -9 -10 -9 -8 -8 -8 -8 -8 -7 -8 -7 -7 -7
-1 -1 -2 -3 -3 -4 -5 -5 -6 -6 -6 -7 -7 -8 -8 -8 -8 -9 -9 -9 -9 -9 -9 -10 -10 -10 -10 -10 -9 -8 -8 -8 -8 -8 -8 -8 -7 -7
-2 -2 -3 -4 -4 -5 -5 -6 -6 -7 -7 -8 -8 -8 -9 -9 -9 -9 -9 -9 -9 -9 -10 -10 -10 -10 -10 -10 -10 -9 -9 -8 -8 -8 -8 -8 -8 -7
-3 -3 -4 -4 -5 -6 -6 -7 -7 -8 -8 -8 -9 -9 -9 -9 -10 -10 -10 -10 -10 -9 -10 -10 -10 -10 -10 -10 -10 -9 -9 -9 -9 -9 -8 -8 -8 -8
-4 -4 -5 -5 -6 -6 -7 -7 -8 -8 -9 -9 -9 -10 -10 -10 -10 -10 -10 -10 -10 -10 -10 -10 -10 -10 -10 -9 -9 -9 -9 -9 -9 -9 -8 -8 -7 -8
-5 -5 -6 -6 -7 -8 -8 -8 -9 -9 -10 -10 -10 -10 -10 -10 -10 -10 -10 -10 -10 -10 -10 -10 -10 -10 -9 -9 -9 -9 -9 -9 -9 -9 -9 -8 -7 -7
-5 -6 -7 -7 -8 -8 -9 -9 -9 -10 -10 -10 -10 -11 -11 -11 -11 -11 -11 -11 -11 -11 -11 -11 -11 -10 -10 -10 -9 -10 -10 -9 -9 -9 -9 -9 -8 -7
-6 -7 -7 -8 -8 -9 -9 -10 -10 -10 -10 -11 -11 -11 -11 -11 -11 -11 -11 -11 -11 -11 -11 -11 -11 -11 -11 -11 -10 -9 -10 -10 -9 -9 -9 -8 -8 -8
-7 -7 -8 -8 -9 -9 -10 -10 -10 -11 -11 -11 -11 -11 -11 -11 -11 -11 -11 -11 -11 -11 -11 -11 -11 -11 -11 -11 -10 -10 -9 -9 -10 -9 -9 -9 -8 -8
-7 -8 -8 -9 -9 -10 -10 -10 -11 -11 -11 -11 -11 -11 -12 -12 -12 -12 -12 -12 -11 -11 -11 -11 -11 -11 -11 -10 -10 -10 -9 -9 -9 -9 -9 -9 -9 -9
-8 -8 -9 -9 -10 -10 -10 -11 -11 -11 -11 -11 -11 -12 -12 -12 -12 -12 -12 -12 -12 -12 -11 -11 -11 -11 -11 -11 -10 -10 -10 -9 -9 -9 -9 -9 -9 -9
Wind_Speed
6 6 5 4 4 4 4 4 4 4 5 4 3 3 6 9 11 11 12 15 18 19 20 21 21 22 22 23 23 24 24 24 24 24 25 25 25 25
5 6 5 4 4 4 4 4 4 5 5 4 5 4 6 9 12 13 14 17 18 19 21 21 22 22 23 23 24 24 24 24 25 24 24 24 24 24
5 6 6 5 4 4 4 4 5 5 7 6 4 4 4 6 10 13 14 14 15 19 21 22 22 22 23 23 24 24 24 24 24 24 24 24 24 24
7 6 6 5 5 4 4 5 5 6 6 8 5 4 6 6 7 7 10 12 13 18 21 21 21 22 22 23 23 24 24 23 23 23 23 23 23 24
7 7 6 6 6 5 5 6 5 5 6 6 6 4 4 5 5 6 7 8 13 16 18 19 19 21 22 23 23 23 22 22 22 22 22 22 23 23
5 6 6 7 7 6 6 6 5 5 5 6 7 5 5 5 4 5 6 5 7 10 14 16 18 21 21 22 22 22 22 21 21 21 21 21 21 22
4 5 5 7 8 7 5 5 5 5 5 5 6 5 5 4 5 5 7 7 7 6 6 8 9 10 14 18 19 20 20 20 20 21 21 21 22 22
4 4 4 6 8 9 11 10 8 6 5 5 5 6 7 6 6 6 6 7 6 3 4 6 5 7 8 11 17 19 19 19 20 20 21 21 21 21
4 3 3 4 5 4 7 9 9 12 11 7 7 7 7 6 6 7 7 8 8 4 4 6 4 6 7 13 18 18 18 18 19 19 19 20 20 20
3 3 4 4 4 4 4 4 5 7 9 6 6 8 7 7 6 6 7 7 6 5 4 5 4 5 7 10 15 15 16 18 18 19 19 18 19 19
2 2 2 3 7 8 4 5 6 6 9 12 13 12 13 13 11 5 4 5 6 4 3 3 3 4 5 5 9 13 16 17 18 18 18 18 18 17
1 1 3 5 8 9 4 4 6 6 5 5 6 8 8 9 11 5 3 5 5 4 2 2 3 3 4 4 4 7 10 14 17 17 17 17 17 11
1 2 3 7 9 9 8 4 8 7 3 3 4 4 5 4 5 4 4 4 5 5 4 3 3 2 4 5 4 5 5 6 9 10 14 16 16 12
1 2 3 7 7 8 7 9 11 8 3 3 3 4 4 4 5 5 6 6 7 7 8 5 4 4 4 6 6 5 5 6 5 6 6 13 14 15
1 3 5 6 6 5 7 10 8 4 3 3 4 4 4 4 4 4 5 5 6 8 8 7 5 5 5 6 6 6 5 5 5 5 6 7 7 7
2 3 5 6 5 5 6 5 4 3 4 3 4 4 4 3 3 3 3 3 3 5 5 6 6 5 5 7 7 8 6 5 5 7 7 7 7 6
1 1 2 2 3 3 3 3 3 4 4 4 4 4 4 4 4 3 2 2 2 4 5 5 6 6 7 6 5 7 6 6 6 6 7 8 7 6
2 1 2 2 3 3 4 4 4 4 4 4 4 4 4 4 4 4 3 2 3 4 4 4 4 4 4 4 7 6 5 5 6 7 5 6 7 6
2 1 2 3 3 3 4 4 4 4 4 4 4 4 4 4 4 4 4 3 4 4 4 3 3 3 4 5 5 4 4 6 6 6 5 5 7 9
1 2 3 3 3 4 4 4 4 4 4 4 4 4 4 4 4 4 4 4 4 4 4 4 3 3 3 4 5 5 8 7 6 7 6 6 6 9
2 3 3 3 4 4 4 4 4 5 4 4 4 4 4 3 4 4 4 7 5 3 5 5 5 8 4 3 5 5 5 9 9 6 6 6 6 4
3 3 3 4 4 4 4 4 5 5 4 4 4 4 4 4 4 5 4 4 4 4 5 5 5 4 2 3 5 6 6 7 9 12 9 7 4 4
3 4 4 4 4 4 4 4 5 5 4 4 4 4 4 4 4 4 4 4 4 4 4 4 4 3 3 3 4 5 7 7 5 5 5 10 11 12
Wind_Direction
194 194 198 200 192 193 186 178 189 257 277 264 268 269 269 276 283 287 287 296 302 304 304 302 301 301 300 301 300 299 298 298 298 297 296 296 295 296
188 191 202 201 195 193 195 198 196 209 252 252 249 258 274 281 287 290 287 294 300 302 302 300 300 300 300 300 299 298 297 297 298 297 297 297 297 298
191 197 211 198 197 200 197 203 210 205 248 268 249 259 262 268 283 285 286 285 287 296 299 299 299 300 300 302 301 300 299 298 298 297 297 298 299 299
202 201 215 203 208 208 207 216 221 216 230 267 273 264 257 262 268 277 285 286 283 292 296 298 299 300 303 304 303 302 301 300 300 299 298 298 299 299
200 205 213 203 220 222 220 225 230 234 228 251 273 265 266 268 278 279 279 282 287 290 294 296 296 299 303 305 305 304 304 304 302 300 300 300 299 299
203 209 210 209 222 226 229 232 232 235 237 250 268 273 268 267 264 276 287 274 281 288 287 288 293 300 303 305 306 305 305 304 303 302 301 301 302 301
212 218 220 226 234 235 238 232 225 234 241 252 266 275 275 275 270 264 280 285 276 266 271 279 288 290 294 298 302 301 302 303 303 302 304 304 304 303
217 230 236 242 253 264 269 267 258 250 250 251 262 268 273 267 268 272 278 289 289 255 260 279 274 278 283 284 292 299 303 305 305 306 307 306 305 304
210 224 243 253 269 268 280 287 286 283 279 272 266 267 271 270 272 277 273 275 280 278 278 280 268 275 282 290 300 302 306 309 310 309 308 307 307 307
207 216 233 257 269 274 255 266 267 272 279 277 257 264 266 270 264 272 279 283 277 270 249 269 274 273 288 290 297 303 312 315 314 314 312 312 311 311
225 231 245 253 282 295 284 274 278 277 284 288 290 294 300 305 306 302 299 297 295 281 239 253 280 288 285 281 290 306 315 318 319 318 317 317 316 316
268 274 286 293 298 304 287 270 279 280 283 296 302 307 306 306 309 305 279 285 289 286 268 264 280 307 303 282 280 296 305 312 320 322 322 321 319 318
236 270 280 303 309 309 307 282 290 307 303 293 292 292 295 292 291 283 260 254 268 266 269 268 271 266 269 295 294 283 288 300 310 311 319 322 322 321
241 257 280 311 318 319 318 314 318 328 331 311 302 297 294 290 287 283 279 266 256 261 272 266 259 258 276 290 292 294 298 294 297 300 308 320 322 322
288 318 327 331 333 330 325 325 332 334 315 306 299 292 285 281 288 295 292 293 292 285 280 265 251 261 260 273 285 292 307 304 301 307 311 311 307 309
24 356 353 350 351 337 333 335 334 313 311 296 292 288 293 294 295 295 294 310 316 310 305 295 276 260 262 265 271 284 291 293 307 312 311 305 300 296
79 30 3 348 339 331 326 319 317 318 318 309 302 303 306 309 305 307 300 310 304 302 308 312 305 281 255 255 272 276 285 289 291 305 313 312 303 296
37 7 327 318 308 307 310 310 308 310 309 309 307 305 304 303 304 306 305 303 299 297 297 301 320 330 329 287 239 262 280 284 297 305 303 307 306 304
30 332 305 300 298 299 298 296 294 298 300 300 300 301 303 300 301 304 308 308 303 299 297 300 311 324 327 316 301 262 272 297 305 307 300 294 296 301
340 296 290 290 292 294 294 294 294 299 298 295 294 296 296 298 302 303 305 300 300 303 307 306 297 289 278 289 295 293 294 289 294 301 302 300 287 292
304 296 290 288 288 288 288 290 289 289 289 288 288 291 291 289 291 294 297 306 309 302 302 299 289 307 293 288 294 293 293 301 300 291 295 304 306 306
289 290 290 289 288 285 286 288 289 288 287 280 281 284 284 281 284 288 292 295 293 289 287 290 301 313 306 285 292 296 300 308 315 314 303 294 302 310
281 283 284 286 284 282 280 283 284 285 282 277 277 280 282 280 279 283 285 284 291 297 301 305 313 313 291 280 289 294 302 309 313 321 314 322 321 310
Height
1514 1514 1514 1514 1513 1512 1511 1510 1508 1503 1500 1499 1499 1498 1496 1493 1490 1487 1484 1481 1478 1475 1472 1469 1467 1464 1461 1459 1456 1453 1451 1448 1446 1443 1441 1439 1437 1435
1509 1509 1509 1509 1508 1507 1506 1505 1503 1500 1495 1493 1493 1492 1490 1487 1485 1481 1478 1475 1472 1469 1466 1463 1460 1457 1454 1451 1449 1446 1443 1441 1438 1436 1433 1431 1429 1427
1504 1504 1504 1504 1503 1502 1501 1499 1498 1495 1490 1487 1487 1485 1483 1481 1478 1475 1472 1468 1465 1462 1459 1456 1453 1450 1447 1444 1441 1438 1436 1433 1430 1428 1426 1424 1422 1420
1499 1499 1499 1499 1498 1497 1495 1494 1492 1490 1486 1481 1480 1478 1476 1474 1471 1468 1465 1462 1458 1455 1452 1449 1446 1443 1440 1437 1434 1431 1428 1425 1422 1420 1418 1416 1414 1412
1494 1494 1494 1493 1492 1491 1490 1488 1486 1484 1481 1477 1473 1471 1469 1467 1464 1461 1458 1455 1451 1448 1445 1442 1439 1436 1433 1430 1426 1423 1420 1418 1415 1413 1411 1409 1407 1405
1489 1489 1488 1487 1486 1485 1484 1482 1480 1477 1475 1471 1467 1465 1462 1460 1457 1453 1449 1446 1444 1441 1438 1435 1432 1429 1426 1422 1419 1416 1413 1410 1408 1406 1404 1402 1400 1398
1483 1483 1483 1482 1481 1479 1478 1476 1474 1471 1468 1465 1462 1458 1456 1453 1450 1446 1442 1438 1435 1434 1430 1428 1425 1422 1419 1415 1412 1409 1406 1404 1402 1400 1398 1396 1393 1391
1478 1478 1478 1477 1475 1474 1472 1470 1468 1466 1462 1459 1456 1453 1449 1447 1444 1441 1437 1432 1428 1427 1423 1420 1419 1415 1412 1409 1406 1403 1400 1398 1396 1394 1391 1389 1387 1385
1473 1472 1472 1471 1469 1468 1466 1464 1462 1460 1457 1454 1450 1447 1444 1441 1438 1434 1431 1427 1424 1421 1417 1412 1411 1408 1406 1403 1400 1397 1394 1392 1390 1387 1385 1383 1381 1379
1468 1467 1466 1465 1463 1461 1459 1457 1455 1453 1451 1448 1445 1441 1438 1435 1433 1429 1426 1421 1418 1416 1413 1408 1405 1402 1400 1397 1394 1392 1389 1387 1384 1382 1380 1378 1375 1373
1463 1462 1460 1459 1457 1455 1453 1450 1447 1446 1444 1441 1439 1436 1433 1430 1428 1424 1420 1416 1411 1409 1407 1404 1400 1396 1393 1391 1390 1387 1385 1382 1379 1377 1374 1372 1370 1368
1458 1457 1455 1453 1452 1449 1447 1444 1441 1439 1436 1434 1432 1429 1427 1424 1421 1419 1415 1411 1407 1404 1402 1400 1396 1393 1388 1386 1385 1383 1380 1378 1375 1372 1370 1367 1365 1363
1452 1451 1449 1448 1446 1444 1441 1439 1436 1433 1430 1427 1425 1422 1420 1418 1415 1413 1410 1407 1404 1401 1399 1397 1393 1390 1388 1383 1380 1379 1377 1374 1371 1368 1366 1363 1361 1359
1447 1445 1444 1442 1440 1438 1436 1434 1431 1428 1425 1422 1419 1417 1414 1412 1409 1407 1405 1402 1400 1398 1395 1393 1390 1388 1384 1380 1377 1374 1373 1370 1367 1364 1362 1360 1358 1355
1442 1440 1439 1437 1435 1433 1431 1428 1426 1423 1420 1417 1414 1412 1410 1407 1405 1402 1400 1398 1396 1394 1391 1389 1386 1384 1382 1378 1375 1372 1369 1366 1364 1362 1359 1356 1354 1351
1437 1435 1434 1432 1430 1428 1426 1423 1421 1418 1416 1413 1410 1408 1405 1403 1401 1398 1396 1393 1391 1389 1388 1386 1383 1381 1378 1375 1373 1369 1367 1364 1362 1359 1356 1353 1351 1349
1432 1431 1429 1427 1425 1423 1420 1418 1416 1413 1411 1409 1406 1404 1401 1399 1397 1395 1393 1391 1388 1386 1384 1383 1380 1378 1375 1373 1370 1367 1365 1362 1360 1356 1353 1350 1348 1346
1428 1426 1424 1422 1420 1418 1416 1413 1411 1409 1407 1405 1403 1401 1398 1396 1394 1392 1391 1389 1386 1384 1382 1379 1377 1374 1373 1370 1368 1365 1363 1360 1357 1354 1351 1348 1345 1343
1424 1422 1420 1418 1416 1414 1412 1410 1408 1406 1404 1402 1400 1398 1396 1394 1392 1390 1388 1386 1384 1382 1380 1378 1376 1373 1370 1368 1366 1364 1361 1358 1355 1352 1349 1346 1342 1340
1420 1418 1416 1414 1412 1410 1408 1406 1404 1402 1400 1399 1397 1395 1393 1391 1389 1388 1386 1384 1382 1380 1378 1377 1375 1372 1370 1368 1364 1362 1360 1356 1353 1349 1347 1344 1341 1338
1416 1414 1412 1410 1408 1406 1405 1403 1401 1399 1397 1395 1394 1392 1391 1389 1387 1386 1384 1382 1380 1378 1377 1375 1373 1372 1369 1366 1363 1360 1358 1356 1352 1348 1345 1341 1338 1335
1412 1410 1408 1407 1405 1403 1401 1399 1397 1396 1394 1392 1391 1389 1388 1386 1385 1383 1382 1380 1379 1377 1375 1373 1372 1370 1367 1365 1361 1358 1355 1353 1351 1348 1345 1342 1339 1335
1408 1406 1405 1403 1401 1399 1397 1395 1394 1392 1391 1389 1388 1387 1385 1384 1382 1381 1380 1378 1377 1375 1373 1372 1370 1368 1366 1363 1360 1357 1355 1352 1349 1346 1344 1342 1339 1336